FW6802 Weather Reports


Display with metric or nautical units.
time (UTC)temp
F
wind
direction
speed
MPH
gust
MPH
rain 1hr
in
rain 24hr
in
rain mn
in
humidity
%
barometer
mb
20260904060707 80 184 0.0 12.0 0.00 0.00 0.00 83 1013.1
20260904060207 80 184 0.0 12.0 0.00 0.00 0.00 83 1012.8
20260904055706 81 184 0.0 12.0 0.00 0.00 0.00 83 1012.9
20260904054649 81 184 0.0 12.0 0.00 0.00 0.00 83 1013.1
20260904053118 81 184 0.0 12.0 0.00 0.00 0.00 82 1012.8
20260904052617 81 184 0.0 12.0 0.00 0.00 0.00 81 1013.1
20260904052116 82 184 0.0 12.0 0.00 0.00 0.00 80 1013.0
20260904051616 82 184 0.0 12.0 0.00 0.00 0.00 80 1012.9
20260904051116 82 184 0.0 12.0 0.00 0.00 0.00 79 1012.9
20260904050616 82 184 0.0 12.0 0.00 0.00 0.00 79 1012.8
20260904050116 82 184 0.0 12.0 0.00 0.00 0.00 79 1012.9
20260904045616 82 184 0.0 12.0 0.00 0.00 0.00 79 1013.0
20260904045116 82 184 1.0 12.0 0.00 0.00 0.00 79 1012.7
20260904044615 82 184 0.0 12.0 0.00 0.00 0.00 79 1013.0
20260904044115 82 184 0.0 12.0 0.00 0.00 0.00 79 1012.7
20260904043100 82 184 0.0 12.0 0.00 0.00 0.00 79 1012.9
20260904042600 82 184 0.0 12.0 0.00 0.00 0.00 79 1012.7
20260904042059 83 184 2.0 12.0 0.00 0.00 0.00 79 1012.7
20260904041558 83 184 1.0 12.0 0.00 0.00 0.00 79 1013.0
20260904041057 83 184 0.0 12.0 0.00 0.00 0.00 79 1012.7
20260904040558 83 184 1.0 12.0 0.00 0.00 0.00 78 1012.7
20260904040057 83 184 1.0 12.0 0.00 0.00 0.00 78 1012.5
20260904035557 83 184 1.0 12.0 0.00 0.00 0.00 78 1012.8
20260904035058 83 184 1.0 12.0 0.00 0.00 0.00 78 1012.5
20260904033526 84 184 1.0 12.0 0.00 0.00 0.00 77 1012.6
20260904033025 84 184 0.0 12.0 0.00 0.00 0.00 77 1012.7
20260904032010 84 184 0.0 12.0 0.00 0.00 0.00 76 1012.7
20260904030955 84 184 1.0 12.0 0.00 0.00 0.00 76 1012.4
20260904030455 84 184 0.0 12.0 0.00 0.00 0.00 76 1012.9
20260904025954 85 184 0.0 12.0 0.00 0.00 0.00 75 1012.7
20260904024423 85 184 1.0 12.0 0.00 0.00 0.00 75 1012.5
20260904023923 85 184 0.0 12.0 0.00 0.00 0.00 75 1012.7
20260904023422 85 184 0.0 12.0 0.00 0.00 0.00 74 1012.8
20260904022921 85 184 0.0 12.0 0.00 0.00 0.00 74 1012.9
20260904022420 85 184 0.0 12.0 0.00 0.00 0.00 74 1012.9
20260904021921 85 184 1.0 12.0 0.00 0.00 0.00 74 1012.7
20260904021421 85 184 0.0 12.0 0.00 0.00 0.00 74 1013.1
20260904020920 85 184 1.0 12.0 0.00 0.00 0.00 73 1012.9
20260904020419 85 184 0.0 12.0 0.00 0.00 0.00 73 1012.6
20260904015918 86 184 0.0 12.0 0.00 0.00 0.00 73 1012.6
20260904015417 86 184 1.0 12.0 0.00 0.00 0.00 73 1012.8
20260904014916 86 184 0.0 12.0 0.00 0.00 0.00 72 1012.6
20260904014415 86 184 0.0 12.0 0.00 0.00 0.00 72 1012.5
20260904013915 86 184 1.0 12.0 0.00 0.00 0.00 72 1012.6
20260904013414 86 184 1.0 12.0 0.00 0.00 0.00 71 1012.8
20260904012913 86 184 1.0 12.0 0.00 0.00 0.00 71 1012.7
20260904012412 86 184 1.0 12.0 0.00 0.00 0.00 71 1012.4
20260904011356 87 184 0.0 12.0 0.00 0.00 0.00 70 1012.4
20260904010339 87 189 0.0 12.0 0.00 0.00 0.00 69 1012.5
20260904005839 88 189 0.0 12.0 0.00 0.00 0.00 67 1012.5
20260904004308 88 189 1.0 12.0 0.00 0.00 0.00 66 1012.0
20260904003808 89 189 1.0 12.0 0.00 0.00 0.00 66 1012.3
20260904003307 89 189 1.0 12.0 0.00 0.00 0.00 66 1012.0
20260904002807 89 189 1.0 12.0 0.00 0.00 0.00 65 1011.7
20260904002307 89 189 1.0 12.0 0.00 0.00 0.00 65 1012.1
20260904001807 90 184 2.0 12.0 0.00 0.00 0.00 65 1012.0
20260904000751 91 206 1.0 12.0 0.00 0.00 0.00 63 1011.7
20260904000252 91 208 2.0 12.0 0.00 0.00 0.00 62 1011.7
20260903235751 91 208 2.0 12.0 0.00 0.00 0.00 61 1011.9
20260903235251 92 213 2.0 12.0 0.00 0.00 0.00 61 1011.9
20260903234750 92 208 2.0 12.0 0.00 0.00 0.00 61 1011.7
20260903234249 92 218 2.0 12.0 0.00 0.00 0.00 61 1012.0
20260903233748 93 212 2.0 12.0 0.00 0.00 0.00 61 1011.8
20260903233247 93 224 1.0 12.0 0.00 0.00 0.00 60 1012.3
20260903232747 93 203 1.0 12.0 0.00 0.00 0.00 60 1009.4
20260903232246 94 178 1.0 12.0 0.00 0.00 0.00 59 1009.6
20260903231229 94 208 2.0 12.0 0.00 0.00 0.00 57 1010.8
20260903230729 94 207 3.0 12.0 0.00 0.00 0.00 57 1011.2
20260903230229 94 217 3.0 12.0 0.00 0.00 0.00 56 1011.6
20260903225729 94 202 3.0 12.0 0.00 0.00 0.00 56 1011.7
20260903224713 94 209 3.0 12.0 0.00 0.00 0.00 55 1012.5
20260903224212 94 206 4.0 12.0 0.00 0.00 0.00 55 1012.3
20260903223712 95 208 2.0 12.0 0.00 0.00 0.00 54 1011.6
20260903223212 95 218 4.0 12.0 0.00 0.00 0.00 54 1011.7
20260903222712 96 215 4.0 12.0 0.00 0.00 0.00 53 1012.3
20260903222212 96 219 4.0 12.0 0.00 0.00 0.00 53 1011.4
20260903221711 96 230 3.0 12.0 0.00 0.00 0.00 53 1012.5
20260903215625 97 210 3.0 13.0 0.00 0.00 0.00 52 1011.7
20260903215124 97 226 3.0 13.0 0.00 0.00 0.00 51 1011.8
20260903214623 97 209 5.0 13.0 0.00 0.00 0.00 52 1012.0
20260903214123 97 202 3.0 14.0 0.00 0.00 0.00 51 1012.0
20260903213623 97 207 5.0 14.0 0.00 0.00 0.00 50 1012.4
20260903213123 97 235 5.0 14.0 0.00 0.00 0.00 51 1012.3
20260903212622 97 222 3.0 14.0 0.00 0.00 0.00 51 1012.5
20260903212122 97 224 4.0 14.0 0.00 0.00 0.00 51 1012.3
20260903211622 97 217 5.0 14.0 0.00 0.00 0.00 51 1011.9
20260903211121 97 214 6.0 14.0 0.00 0.00 0.00 51 1011.3
20260903210620 97 214 6.0 14.0 0.00 0.00 0.00 50 1011.8
20260903210120 97 216 4.0 14.0 0.00 0.00 0.00 50 1011.2
20260903205619 97 225 7.0 14.0 0.00 0.00 0.00 49 1011.3
20260903204048 98 213 6.0 14.0 0.00 0.00 0.00 49 1011.6
20260903203548 98 214 5.0 14.0 0.00 0.00 0.00 48 1012.0
20260903203046 98 204 5.0 14.0 0.00 0.00 0.00 49 1012.1
20260903201514 98 211 7.0 14.0 0.00 0.00 0.00 47 1012.3
20260903201014 98 228 3.0 12.0 0.00 0.00 0.00 48 1012.2
20260903200515 98 213 5.0 12.0 0.00 0.00 0.00 48 1012.4
20260903200014 98 236 6.0 12.0 0.00 0.00 0.00 48 1012.1
20260903195513 98 214 6.0 12.0 0.00 0.00 0.00 48 1012.4
20260903195011 99 208 6.0 12.0 0.00 0.00 0.00 48 1012.5
20260903194512 99 219 4.0 12.0 0.00 0.00 0.00 49 1012.8
20260903192940 98 205 6.0 12.0 0.00 0.00 0.00 50 1012.9
20260903192438 98 219 4.0 12.0 0.00 0.00 0.00 50 1012.8
20260903191938 99 207 7.0 11.0 0.00 0.00 0.00 48 1012.8
20260903191436 99 237 5.0 11.0 0.00 0.00 0.00 48 1013.3
20260903190936 98 220 4.0 11.0 0.00 0.00 0.00 49 1013.2
20260903190436 99 205 4.0 11.0 0.00 0.00 0.00 49 1013.1
20260903185934 99 224 6.0 12.0 0.00 0.00 0.00 49 1013.3
20260903185434 98 218 6.0 12.0 0.00 0.00 0.00 49 1013.3
20260903184933 98 213 4.0 12.0 0.00 0.00 0.00 50 1012.9
20260903184433 98 218 6.0 12.0 0.00 0.00 0.00 50 1013.2
20260903183933 98 221 4.0 12.0 0.00 0.00 0.00 49 1013.1
20260903183432 98 216 5.0 12.0 0.00 0.00 0.00 50 1013.1
20260903182931 98 233 5.0 12.0 0.00 0.00 0.00 49 1013.4
20260903182431 98 215 6.0 12.0 0.00 0.00 0.00 48 1013.4
20260903181931 98 206 5.0 13.0 0.00 0.00 0.00 50 1013.3
20260903181430 98 241 4.0 13.0 0.00 0.00 0.00 49 1013.1
20260903180414 98 241 5.0 13.0 0.00 0.00 0.00 49 1013.4
20260903175359 98 212 4.0 13.0 0.00 0.00 0.00 51 1013.4
20260903174857 98 243 4.0 13.0 0.00 0.00 0.00 51 1013.5
20260903174357 97 235 4.0 13.0 0.00 0.00 0.00 51 1013.5
20260903173340 97 213 6.0 13.0 0.00 0.00 0.00 51 1013.5
20260903172839 97 209 4.0 13.0 0.00 0.00 0.00 52 1013.5
20260903172338 97 201 5.0 13.0 0.00 0.00 0.00 52 1013.4
20260903171837 97 207 6.0 13.0 0.00 0.00 0.00 52 1013.6
20260903171335 97 214 5.0 13.0 0.00 0.00 0.00 52 1013.5
20260903170835 97 212 5.0 12.0 0.00 0.00 0.00 51 1013.6
20260903170335 97 224 5.0 12.0 0.00 0.00 0.00 52 1013.8
20260903165835 96 200 4.0 12.0 0.00 0.00 0.00 54 1013.7
20260903165335 96 203 6.0 12.0 0.00 0.00 0.00 54 1013.6
20260903164319 96 213 4.0 12.0 0.00 0.00 0.00 54 1013.7
20260903163819 96 197 7.0 12.0 0.00 0.00 0.00 53 1014.0
20260903162802 96 231 5.0 13.0 0.00 0.00 0.00 56 1014.0
20260903162302 95 230 3.0 13.0 0.00 0.00 0.00 57 1014.0
20260903161802 95 216 5.0 13.0 0.00 0.00 0.00 57 1014.4
20260903160747 94 210 4.0 13.0 0.00 0.00 0.00 58 1014.3
20260903160247 94 206 4.0 13.0 0.00 0.00 0.00 60 1014.2
20260903155747 94 221 5.0 13.0 0.00 0.00 0.00 57 1014.2
20260903154730 94 200 4.0 13.0 0.00 0.00 0.00 62 1014.2
20260903154230 93 214 3.0 13.0 0.00 0.00 0.00 63 1014.3
20260903153730 92 220 3.0 13.0 0.00 0.00 0.00 64 1014.5
20260903153230 92 194 3.0 13.0 0.00 0.00 0.00 64 1014.5
20260903152729 92 206 3.0 13.0 0.00 0.00 0.00 65 1014.3
20260903152229 91 208 4.0 13.0 0.00 0.00 0.00 64 1013.9
20260903151728 91 204 4.0 13.0 0.00 0.00 0.00 65 1014.1
20260903151225 91 206 4.0 13.0 0.00 0.00 0.00 65 1014.2
20260903150725 90 203 3.0 13.0 0.00 0.00 0.00 67 1014.3
20260903150224 90 219 4.0 13.0 0.00 0.00 0.00 67 1014.4
20260903145723 89 201 4.0 13.0 0.00 0.00 0.00 68 1014.2
20260903145223 89 205 3.0 13.0 0.00 0.00 0.00 68 1014.0
20260903144722 89 198 3.0 13.0 0.00 0.00 0.00 69 1014.0
20260903144222 88 178 3.0 13.0 0.00 0.00 0.00 70 1014.3
20260903142650 87 201 3.0 13.0 0.00 0.00 0.00 72 1014.3
20260903142150 86 199 4.0 13.0 0.00 0.00 0.00 72 1013.9
20260903141650 86 194 4.0 13.0 0.00 0.00 0.00 73 1014.0
20260903140635 85 204 3.0 13.0 0.00 0.00 0.00 74 1014.2
20260903140134 85 223 3.0 13.0 0.00 0.00 0.00 75 1014.1
20260903135634 84 221 4.0 13.0 0.00 0.00 0.00 76 1014.2
20260903135133 84 207 3.0 13.0 0.00 0.00 0.00 77 1014.2
20260903134632 83 207 3.0 13.0 0.00 0.00 0.00 77 1014.3
20260903134132 83 199 3.0 13.0 0.00 0.00 0.00 77 1014.4
20260903133632 83 215 2.0 13.0 0.00 0.00 0.00 77 1014.5
20260903133131 83 198 2.0 13.0 0.00 0.00 0.00 78 1014.4
20260903132630 82 196 3.0 13.0 0.00 0.00 0.00 79 1014.4
20260903132129 82 200 2.0 13.0 0.00 0.00 0.00 79 1014.5
20260903131628 82 219 4.0 13.0 0.00 0.00 0.00 80 1014.7
20260903131127 81 216 2.0 13.0 0.00 0.00 0.00 81 1014.4
20260903125554 80 185 2.0 13.0 0.00 0.00 0.00 84 1014.5
20260903125053 79 199 1.0 13.0 0.00 0.00 0.00 85 1014.5
20260903124553 79 188 2.0 13.0 0.00 0.00 0.00 85 1014.5
20260903124053 78 187 2.0 13.0 0.00 0.00 0.00 85 1014.7
20260903123552 78 177 2.0 13.0 0.00 0.00 0.00 86 1014.6
20260903123051 78 173 2.0 13.0 0.00 0.00 0.00 86 1014.5
20260903122550 77 195 2.0 13.0 0.00 0.00 0.00 87 1014.4
20260903122050 77 189 2.0 13.0 0.00 0.00 0.00 87 1014.5
20260903121550 77 187 0.0 13.0 0.00 0.00 0.00 87 1014.3
20260903121049 77 189 2.0 13.0 0.00 0.00 0.00 88 1014.1
20260903120548 76 196 2.0 13.0 0.00 0.00 0.00 88 1014.3
20260903120048 76 186 1.0 13.0 0.00 0.00 0.00 88 1014.3
20260903115547 76 184 1.0 13.0 0.00 0.00 0.00 88 1014.1
20260903115047 76 187 2.0 13.0 0.00 0.00 0.00 88 1014.1
20260903114546 76 180 2.0 13.0 0.00 0.00 0.00 88 1014.2
20260903114045 76 166 1.0 13.0 0.00 0.00 0.00 88 1014.2
20260903113545 76 179 1.0 13.0 0.00 0.00 0.00 88 1014.0
20260903113045 76 179 1.0 13.0 0.00 0.00 0.00 88 1014.0
20260903112545 76 178 0.0 13.0 0.00 0.00 0.00 88 1014.1
20260903111529 76 175 2.0 13.0 0.00 0.00 0.00 88 1014.2
20260903111029 76 189 1.0 13.0 0.00 0.00 0.00 88 1014.1
20260903110529 76 189 2.0 13.0 0.00 0.00 0.00 88 1013.8
20260903110029 76 189 1.0 13.0 0.00 0.00 0.00 88 1013.8
20260903105013 76 188 1.0 13.0 0.00 0.00 0.00 88 1013.5
20260903103958 76 187 2.0 13.0 0.00 0.00 0.00 88 1014.1
20260903103458 76 185 0.0 13.0 0.00 0.00 0.00 88 1013.9
20260903102957 76 186 1.0 13.0 0.00 0.00 0.00 88 1014.0
20260903101941 77 184 1.0 13.0 0.00 0.00 0.00 88 1013.9
20260903101440 77 184 1.0 13.0 0.00 0.00 0.00 88 1013.8
20260903100940 77 184 1.0 13.0 0.00 0.00 0.00 88 1013.7
20260903100439 77 184 1.0 13.0 0.00 0.00 0.00 88 1013.7
20260903095939 77 184 1.0 13.0 0.00 0.00 0.00 88 1013.6
20260903094923 77 184 1.0 13.0 0.00 0.00 0.00 88 1013.6
20260903094422 77 183 1.0 13.0 0.00 0.00 0.00 87 1013.6
20260903093921 77 181 1.0 13.0 0.00 0.00 0.00 87 1013.7
20260903093420 77 181 1.0 13.0 0.00 0.00 0.00 87 1013.8
20260903092919 77 181 0.0 13.0 0.00 0.00 0.00 87 1013.5
20260903092418 77 181 0.0 13.0 0.00 0.00 0.00 87 1013.6
20260903091917 78 181 0.0 13.0 0.00 0.00 0.00 87 1013.7
20260903091417 77 181 0.0 13.0 0.00 0.00 0.00 87 1013.5
20260903090402 78 181 0.0 13.0 0.00 0.00 0.00 86 1013.7
20260903085901 78 181 0.0 13.0 0.00 0.00 0.00 86 1013.6
20260903085400 78 181 0.0 13.0 0.00 0.00 0.00 86 1013.6
20260903084859 78 181 0.0 13.0 0.00 0.00 0.00 86 1013.7
20260903084359 78 181 0.0 13.0 0.00 0.00 0.00 86 1013.7
20260903083858 78 181 0.0 13.0 0.00 0.00 0.00 86 1013.6
20260903082842 78 181 0.0 13.0 0.00 0.00 0.00 85 1013.7
20260903081826 79 181 0.0 13.0 0.00 0.00 0.00 85 1013.8
20260903081326 79 181 1.0 13.0 0.00 0.00 0.00 85 1013.8
20260903080825 79 184 1.0 13.0 0.00 0.00 0.00 85 1013.6
20260903080325 79 188 0.0 13.0 0.00 0.00 0.00 85 1013.5
20260903075825 79 188 1.0 13.0 0.00 0.00 0.00 85 1013.7
20260903074809 79 187 2.0 13.0 0.00 0.00 0.00 84 1013.5
20260903074309 79 185 1.0 13.0 0.00 0.00 0.00 84 1013.6
20260903073809 79 184 1.0 13.0 0.00 0.00 0.00 84 1013.4
20260903073308 79 184 0.0 13.0 0.00 0.00 0.00 84 1013.5
20260903072808 79 184 2.0 13.0 0.00 0.00 0.00 84 1013.6
20260903072308 79 184 1.0 13.0 0.00 0.00 0.00 84 1013.6
20260903071252 79 184 2.0 13.0 0.00 0.00 0.00 84 1013.5
20260903070751 79 183 1.0 13.0 0.00 0.00 0.00 84 1013.4
20260903070251 79 183 1.0 13.0 0.00 0.00 0.00 84 1013.5
20260903065236 80 182 2.0 13.0 0.00 0.00 0.00 83 1013.3
20260903064736 80 180 1.0 13.0 0.00 0.00 0.00 83 1013.6
20260903064236 80 179 1.0 13.0 0.00 0.00 0.00 83 1013.7
20260903063736 80 179 0.0 13.0 0.00 0.00 0.00 83 1013.3
20260903063236 80 179 0.0 13.0 0.00 0.00 0.00 82 1013.4
20260903062736 80 179 1.0 13.0 0.00 0.00 0.00 82 1013.3
20260903061719 81 179 0.0 13.0 0.00 0.00 0.00 82 1013.4
20260903061218 81 166 1.0 13.0 0.00 0.00 0.00 82 1013.6